Location: Falniów
(50.3639°N, 19.9642°E)
Time: 05:01:27
(UTC+00:00)

Cosmos 540 Rocket - Visible Passes

Search period start: 21 April 2026 00:00
Search period end: 01 May 2026 00:00
Orbit: 734 x 748 km, 74.1° (Epoch: 20 April)

Date Brightness Start Highest point End Pass type
(mag) Time Alt. Az. Time Alt. Az. Time Alt. Az.
21 Apr 5.7 00:06:09 12° ESE 00:08:21 16° E 00:11:18 10° ENE visible
21 Apr 3.4 01:45:50 23° SSW 01:49:05 85° WNW 01:54:17 10° NNE visible
22 Apr 4.0 01:01:36 29° S 01:03:59 53° ESE 01:09:00 10° NNE visible
22 Apr 4.6 02:41:19 10° WSW 02:45:45 29° NW 02:50:14 10° N visible
23 Apr 4.9 00:17:21 23° SE 00:19:03 29° E 00:23:26 10° NE visible
23 Apr 3.9 01:57:03 20° SW 02:00:18 48° WNW 02:05:19 10° NNE visible
23 Apr 5.6 23:33:03 14° ESE 23:34:17 15° E 23:37:15 10° ENE visible
24 Apr 3.4 01:12:45 34° SSW 01:15:02 85° WNW 01:20:13 10° NNE visible
25 Apr 3.9 00:28:25 39° SSE 00:29:56 52° ESE 00:34:56 10° NNE visible
25 Apr 4.7 02:08:06 14° WSW 02:11:42 29° NW 02:16:10 10° N visible
25 Apr 4.7 23:44:03 27° ESE 23:45:00 28° E 23:49:22 10° NE visible
26 Apr 3.9 01:23:45 27° WSW 01:26:14 48° WNW 01:31:15 10° NNE visible
26 Apr 5.5 22:59:40 15° ESE 23:00:14 15° E 23:03:10 10° ENE visible
27 Apr 3.4 00:39:21 45° SSW 00:40:58 86° WNW 00:46:10 10° NNE visible
27 Apr 5.3 02:19:44 10° W 02:23:16 18° NW 02:26:48 10° N visible
27 Apr 3.8 23:54:57 46° SE 23:55:52 52° ESE 00:00:53 10° NNE visible
28 Apr 4.7 01:34:38 17° W 01:37:38 29° NW 01:42:06 10° N visible
28 Apr 4.7 23:10:30 28° ESE 23:10:56 28° E 23:15:18 10° NE visible
29 Apr 4.0 00:50:11 32° WSW 00:52:10 48° WNW 00:57:11 10° NNE visible
29 Apr 5.7 02:33:05 10° WNW 02:35:00 12° NW 02:36:56 10° NNW visible
29 Apr 5.5 22:26:03 15° E 22:26:10 15° E 22:29:05 10° ENE visible
30 Apr 3.4 00:05:44 55° SSW 00:06:54 86° WNW 00:12:05 10° NNE visible
30 Apr 5.4 01:45:39 10° W 01:49:12 18° NW 01:52:44 10° N visible
30 Apr 3.7 23:21:14 50° SE 23:21:48 52° ESE 23:26:48 10° NNE visible
